Skip Page Navigation
NASA JPL Caltech
NASA Logo - Jet Propulsion Laboratory + View the NASA Portal
+ Center for Near-Earth Object Studies
JPL Home Earth Solar System Stars & Galaxies Technology
JPL Solar System Dynamics
BODIES ORBITS EPHEMERIDES TOOLS PHYSICAL DATA DISCOVERY FAQ SITE MAP

Significant website upgrade scheduled for September 27. More details available here.

JPL Small-Body Database Browser
Search: [ help ]  
(2014 BW32)
Classification: Aten [NEO]          SPK-ID: 3659801
Ephemeris | Orbit Diagram | Orbital Elements | Mission Design | Physical Parameters | Close-Approach Data ]

[ hide orbit diagram ]

For accurate long-term ephemerides, please instead use our Horizons system.This orbit viewer was implemented using two-body methods, and hence should not be used for determining accurate long-term trajectories (over several years or decades) or planetary encounter circumstances.


Orbital Elements at Epoch 2459396.5 (2021-Jul-01.0) TDB
Reference: JPL 17 (heliocentric ecliptic J2000)
 Element Value Uncertainty (1-sigma)   Units 
e .2890184935686554 4.5976e-05  
a .8199873934081566 1.2892e-05 au
q .5829958722200428 4.6866e-05 au
i .9345356576764555 0.00025577 deg
node 123.6505925142187 0.00071403 deg
peri 156.4693170275361 0.0013972 deg
M 225.3992952611572 0.1154 deg
tp 2459497.903751700040
(2021-Oct-10.40375170)
0.089331 TDB
period 271.2121803733747
0.74
0.0063962
1.751e-05
d
yr
n 1.327374012127302 3.1305e-05 deg/d
Q 1.05697891459627 1.6618e-05 au
  Orbit Determination Parameters
   # obs. used (total)      114  
   data-arc span      12 days  
   first obs. used      2014-01-23  
   last obs. used      2014-02-04  
   planetary ephem.      DE441  
   SB-pert. ephem.      SB441-N16  
   condition code      6  
   norm. resid. RMS      .43231  
   source      ORB  
   producer      Otto Matic  
   solution date      2021-Apr-15 09:17:31  

Additional Information
 Earth MOID = .00317035 au 
 Jupiter MOID = 4.04371 au 
 T_jup = 7.106 
[ show covariance matrix ]

Ephemeris | Orbit Diagram | Orbital Elements | Mission Design | Physical Parameters | Close-Approach Data ]

Physical Parameter Table
Parameter Symbol Value Units Sigma Reference Notes
absolute magnitude H 26.6   n/a MPO284129  

[ show close-approach data ]
Ephemeris | Orbit Diagram | Orbital Elements | Mission Design | Physical Parameters | Close-Approach Data ]
ABOUT SSD CREDITS/AWARDS PRIVACY/COPYRIGHT GLOSSARY LINKS
FirstGov 2021-Sep-21 09:27 UT
(server date/time)  
NASA Home Page
Site Manager:   Ryan S. Park
Webmaster  Alan B. Chamberlin